Flag for U.S.A. Weather past 2 weeks in Lakeland, Florida, U.S.A.

Now
88 °F

Partly sunny.


Feels Like: 94 °F
Forecast: 72 / 87 °F
Wind: No wind

Location: Lakeland Regional

Current Time: Jul 22, 2014 at 6:15:14 PM

Latest Report: Jul 22, 2014 at 12:50 PM


Visibility: 10 mi

Pressure: 30.07 "Hg

Humidity: 59%

Dew point: 72 °F

Location of LakelandLocation

Historic Weather in Lakeland — Graph

°F

Lakeland temperature yesterday

Maximum temperature yesterday: 91 °F (at 1:50 PM)
Minimum temperature yesterday: 73 °F (at 3:55 AM)
Average temperature yesterday: 78 °F

Past Weeks' High & Low Weather Summary

 TemperatureHumidityPressure
High91 °F (Jul 11, 2:50 PM)100% (Jul 8, 1:55 AM)30.17 "Hg (Jul 8, 1:55 AM)
Low72 °F (Jul 8, 4:35 AM)41% (Jul 18, 3:50 PM)29.94 "Hg (Jul 16, 3:55 AM)
Average78 °F86%30.07 "Hg
* Reported Jul 7 12:50 PM — Jul 22 12:50 PM, Lakeland, Weather by CustomWeather, © 2014

Note: Actual official high and low records may vary slightly from our data, if they occured in-between our weather recording intervals... More about our weather records

Advertising

Lakeland weather history for previous 24 hours

 ConditionsComfort  
Time TempWeatherWind HumidityBarometerVisibility
12:50 PM
Jul 22
88 °FPartly sunny.No wind59%30.07 "Hg10 mi
11:50 AM84 °FPartly sunny.No wind70%30.08 "Hg10 mi
10:50 AM82 °FPartly sunny.5 mph74%30.08 "Hg10 mi
9:50 AM81 °FPartly sunny.No wind84%30.08 "Hg7 mi
8:48 AM77 °FFog.3 mph100%30.07 "Hg4 mi
7:50 AM75 °FPassing clouds.No wind100%30.06 "Hg7 mi
6:50 AM73 °FPassing clouds.3 mph100%30.05 "Hg10 mi
5:50 AM73 °FClear.No wind100%30.03 "Hg10 mi
5:35 AM73 °FClear.No wind100%30.02 "Hg10 mi
5:15 AM72 °FClear.No wind100%30.02 "Hg10 mi
4:55 AM72 °FClear.No wind100%30.02 "Hg10 mi
4:35 AM72 °FClear.3 mph100%30.02 "Hg10 mi
4:15 AM72 °FClear.No wind100%30.02 "Hg10 mi
3:55 AM72 °FClear.3 mph100%30.02 "Hg10 mi
3:35 AM72 °FClear.No wind100%30.03 "Hg10 mi
3:15 AM72 °FClear.No wind100%30.02 "Hg10 mi
2:55 AM72 °FClear.6 mph100%30.03 "Hg10 mi
2:35 AM72 °FClear.3 mph100%30.03 "Hg10 mi
2:15 AM72 °FClear.No wind100%30.04 "Hg10 mi
1:55 AM72 °FClear.No wind100%30.05 "Hg10 mi
1:35 AM73 °FClear.No wind100%30.05 "Hg10 mi
1:15 AM73 °FClear.No wind100%30.06 "Hg10 mi
12:55 AM73 °FClear.No wind100%30.06 "Hg10 mi
12:35 AM73 °FClear.No wind100%30.06 "Hg10 mi
12:15 AM73 °FClear.No wind100%30.07 "Hg10 mi
11:55 PM
Jul 21
73 °FClear.No wind100%30.08 "Hg10 mi
11:35 PM73 °FClear.6 mph100%30.08 "Hg10 mi
10:55 PM73 °FClear.3 mph100%30.07 "Hg10 mi
10:15 PM73 °FClear.3 mph100%30.07 "Hg10 mi
9:50 PM73 °FPassing clouds.8 mph100%30.06 "Hg10 mi
8:50 PM73 °FScattered clouds.10 mph100%30.08 "Hg10 mi
7:50 PM75 °FBroken clouds.10 mph100%30.08 "Hg10 mi
6:50 PM75 °FLight rain. Partly sunny.8 mph100%30.07 "Hg5 mi
Weather by CustomWeather, © 2014

See weather overviewHow to use our weather pages